^^
Garrymore Weather Station Historical Data
Daily Summary for October 26, 2020 Units:  Metric    English   Both
Daily Weekly Monthly Yearly Custom
  High: Low: Average:
Temperature: 9 °C 8 °C 8.4 °C
Dew Point: 7 °C 5 °C 6.1 °C
Humidity: 86% 84% 86%
Wind Speed: 21km/h 0km/h 10.2km/h
Wind Gust: 93km/h - -
Wind- - West
Pressure: 996.82 hPa 992.62 hPa -
Precipitation: 0 mm    
Historical Graphs
 
 
Tabular Data for October 26, 2020
Time Temperature Dew Point Pressure Wind Wind Speed Wind Gust Humidity Rainfall Rate (Hourly) solar
00:00 8 °C 5 °C 992.62 hPa SSW 14 km/h 27 km/h 84% 0 mm 0 W/m2
00:05 8 °C 6 °C 992.79 hPa WSW 10 km/h 27 km/h 85% 0 mm 0 W/m2
00:10 8 °C 6 °C 992.72 hPa W 11 km/h 34 km/h 85% 0 mm 0 W/m2
00:15 8 °C 6 °C 992.72 hPa SW 16 km/h 34 km/h 85% 0 mm 0 W/m2
00:20 8 °C 6 °C 992.89 hPa SSW 13 km/h 27 km/h 85% 0 mm 0 W/m2
00:25 8 °C 6 °C 992.82 hPa WSW 16 km/h 27 km/h 86% 0 mm 0 W/m2
00:30 8 °C 6 °C 992.79 hPa NW 19 km/h 27 km/h 85% 0 mm 0 W/m2
00:35 8 °C 6 °C 992.99 hPa NNW 13 km/h 26 km/h 85% 0 mm 0 W/m2
00:40 8 °C 6 °C 992.82 hPa WSW 13 km/h 21 km/h 85% 0 mm 0 W/m2
00:45 8 °C 6 °C 992.79 hPa SW 13 km/h 29 km/h 86% 0 mm 0 W/m2
00:50 8 °C 6 °C 992.89 hPa SW 16 km/h 29 km/h 86% 0 mm 0 W/m2
00:55 8 °C 6 °C 992.79 hPa SW 16 km/h 24 km/h 86% 0 mm 0 W/m2
01:00 8 °C 6 °C 992.79 hPa SW 5 km/h 24 km/h 86% 0 mm 0 W/m2
01:05 8 °C 6 °C 992.99 hPa WSW 10 km/h 16 km/h 86% 0 mm 0 W/m2
01:10 8 °C 6 °C 992.89 hPa WSW 5 km/h 16 km/h 86% 0 mm 0 W/m2
01:15 8 °C 6 °C 992.92 hPa WSW 10 km/h 21 km/h 86% 0 mm 0 W/m2
01:20 9 °C 6 °C 992.89 hPa WSW 10 km/h 23 km/h 86% 0 mm 0 W/m2
01:25 9 °C 6 °C 992.82 hPa WSW 10 km/h 19 km/h 86% 0 mm 0 W/m2
01:30 9 °C 6 °C 992.79 hPa WSW 13 km/h 21 km/h 86% 0 mm 0 W/m2
01:35 9 °C 6 °C 993.09 hPa SW 10 km/h 24 km/h 86% 0 mm 0 W/m2
01:40 9 °C 6 °C 993.02 hPa SW 10 km/h 24 km/h 86% 0 mm 0 W/m2
01:45 9 °C 7 °C 993.13 hPa SE 5 km/h 23 km/h 86% 0 mm 0 W/m2
01:50 9 °C 7 °C 993.09 hPa SSE 5 km/h 10 km/h 86% 0 mm 0 W/m2
01:55 9 °C 7 °C 993.19 hPa SSW 10 km/h 13 km/h 86% 0 mm 0 W/m2
02:00 9 °C 6 °C 993.4 hPa SSW 10 km/h 16 km/h 86% 0 mm 0 W/m2
02:05 9 °C 6 °C 993.19 hPa S 10 km/h 16 km/h 86% 0 mm 0 W/m2
02:10 9 °C 6 °C 993.6 hPa S 10 km/h 92 km/h 86% 0 mm 0 W/m2
02:15 9 °C 7 °C 993.5 hPa SSW 8 km/h 93 km/h 86% 0 mm 0 W/m2
02:20 9 °C 7 °C 993.4 hPa SW 5 km/h 14 km/h 86% 0 mm 0 W/m2
02:25 9 °C 7 °C 993.6 hPa W 10 km/h 13 km/h 86% 0 mm 0 W/m2
02:30 9 °C 7 °C 993.8 hPa WNW 8 km/h 13 km/h 86% 0 mm 0 W/m2
02:35 9 °C 7 °C 993.8 hPa NW 3 km/h 13 km/h 86% 0 mm 0 W/m2
02:40 9 °C 7 °C 993.7 hPa W 8 km/h 11 km/h 86% 0 mm 0 W/m2
02:45 9 °C 7 °C 993.91 hPa SSW 8 km/h 13 km/h 86% 0 mm 0 W/m2
02:50 9 °C 7 °C 993.91 hPa NW 8 km/h 13 km/h 86% 0 mm 0 W/m2
02:55 9 °C 7 °C 994.01 hPa NW 2 km/h 11 km/h 86% 0 mm 0 W/m2
03:00 9 °C 7 °C 994.41 hPa WNW 5 km/h 11 km/h 86% 0 mm 0 W/m2
03:05 9 °C 7 °C 994.31 hPa NW 2 km/h 11 km/h 86% 0 mm 0 W/m2
03:10 9 °C 7 °C 994.58 hPa Calm   11 km/h 86% 0 mm 0 W/m2
03:15 9 °C 7 °C 994.48 hPa WNW 2 km/h 10 km/h 86% 0 mm 0 W/m2
03:20 9 °C 7 °C 994.62 hPa W 3 km/h 11 km/h 86% 0 mm 0 W/m2
03:25 9 °C 6 °C 994.41 hPa W 5 km/h 10 km/h 86% 0 mm 0 W/m2
03:30 9 °C 6 °C 994.62 hPa W 2 km/h 11 km/h 86% 0 mm 0 W/m2
03:40 9 °C 6 °C 994.99 hPa WNW 3 km/h 13 km/h 86% 0 mm 0 W/m2
03:45 8 °C 6 °C 994.89 hPa WNW 5 km/h 13 km/h 86% 0 mm 0 W/m2
03:50 8 °C 6 °C 994.99 hPa NW 10 km/h 13 km/h 86% 0 mm 0 W/m2
03:55 8 °C 6 °C 994.99 hPa NW 8 km/h 13 km/h 86% 0 mm 0 W/m2
04:00 8 °C 6 °C 995.09 hPa WNW 8 km/h 14 km/h 86% 0 mm 0 W/m2
04:05 8 °C 6 °C 995.19 hPa NW 8 km/h 14 km/h 86% 0 mm 0 W/m2
04:10 8 °C 6 °C 995.4 hPa NW 5 km/h 14 km/h 86% 0 mm 0 W/m2
04:15 8 °C 6 °C 995.4 hPa WNW 13 km/h 16 km/h 86% 0 mm 0 W/m2
04:20 8 °C 6 °C 995.5 hPa WNW 10 km/h 16 km/h 86% 0 mm 0 W/m2
04:25 8 °C 6 °C 995.43 hPa WNW 13 km/h 18 km/h 85% 0 mm 0 W/m2
04:30 8 °C 6 °C 995.5 hPa WNW 13 km/h 18 km/h 85% 0 mm 0 W/m2
04:35 8 °C 6 °C 995.6 hPa W 14 km/h 19 km/h 86% 0 mm 0 W/m2
04:40 8 °C 6 °C 995.8 hPa W 16 km/h 23 km/h 86% 0 mm 0 W/m2
04:45 8 °C 6 °C 996 hPa NW 16 km/h 23 km/h 86% 0 mm 0 W/m2
04:50 8 °C 6 °C 995.9 hPa NW 13 km/h 23 km/h 85% 0 mm 0 W/m2
04:55 8 °C 5 °C 996 hPa NNW 14 km/h 24 km/h 85% 0 mm 0 W/m2
05:00 8 °C 5 °C 996.11 hPa NNW 19 km/h 26 km/h 85% 0 mm 0 W/m2
05:05 8 °C 5 °C 996.31 hPa W 14 km/h 24 km/h 85% 0 mm 0 W/m2
05:10 8 °C 5 °C 996.31 hPa SW 21 km/h 26 km/h 85% 0 mm 0 W/m2
05:15 8 °C 5 °C 996.11 hPa W 14 km/h 26 km/h 85% 0 mm 0 W/m2
05:20 8 °C 5 °C 996.41 hPa W 16 km/h 27 km/h 85% 0 mm 0 W/m2
05:25 8 °C 5 °C 996.58 hPa W 13 km/h 24 km/h 85% 0 mm 0 W/m2
05:30 8 °C 5 °C 996.72 hPa W 16 km/h 26 km/h 85% 0 mm 0 W/m2
05:35 8 °C 5 °C 996.82 hPa WSW 16 km/h 26 km/h 85% 0 mm 0 W/m2
05:40 8 °C 5 °C 996.78 hPa WSW 13 km/h 26 km/h 84% 0 mm 0 W/m2
05:45 8 °C 5 °C 996.82 hPa NNW 14 km/h 24 km/h 84% 0 mm 0 W/m2
Garrymore Weather Station, Geashill, Tullamore, Offaly, Ireland
Compliments of Weather Underground - 2 mb